Regional Weather Roundup
Issued by NWS Jackson, KY

Home | Current Version | Previous Version | Graphics & Text | Print | Product List | Glossary On
Versions: 1 2 3 4 5 6 7 8 9 10 11 12 13 14 15 16 17 18 19 20 21 22 23 24 25 26 27 28
000
ASUS43 KJKL 220810
RWRJKL

EAST KENTUCKY HOURLY WEATHER ROUNDUP
NATIONAL WEATHER SERVICE JACKSON KY
300 AM EST SUN JAN 22 2017

NOTE: "FAIR" INDICATES FEW OR NO CLOUDS BELOW 12,000 FEET WITH
NO SIGNIFICANT WEATHER AND/OR OBSTRUCTIONS TO VISIBILITY.

* THESE REPORTS ARE NOT UNDER NWS QUALITY CONTROL AND MAY NOT
  REPORT WEATHER SUCH AS PRECIPITATION AND FOG.

KYZ079-080-083-085-087-088-110-112-115-119-120-220900
...EASTERN KENTUCKY...

CITY           SKY/WX    TMP DP  RH WIND       PRES   REMARKS
JACKSON        CLOUDY    52  49  89 SE3       29.60F
LONDON         FOG       44  42  93 CALM      29.57F VSB 1/4
SOMERSET*      CLEAR     45  45 100 CALM      29.58F
MONTICELLO*    PTCLDY    44  43  96 W9        29.57F
WILLIAMSBURG*  MOSUNNY   46  46 100 SE7       29.58F
MIDDLESBORO*   FOG       43  43 100 CALM      29.62F VSB<1/4
HARLAN APT*    CLOUDY    46  46 100 CALM      29.61F VSB 1/4
PIKE CO APT*     N/A     51  51 100 E6        29.61F
MOREHEAD APT*  SUNNY     52  50  93 CALM      29.61F
ASHLAND*       CLOUDY    46  45  93 CALM      29.61F VSB 1/4
$$

KYZ035-036-041-042-044-050-067-078-099-220900
...CENTRAL KENTUCKY...

CITY           SKY/WX    TMP DP  RH WIND       PRES   REMARKS
MT STERLING*   CLEAR     50  48  93 E6        29.60F
FLEMING/MASON* CLEAR     48  47  97 E6        29.61F
DANVILLE*      PTCLDY    45  45 100 CALM      29.58S FOG
LEXINGTON      CLEAR     49  46  90 SE8       29.57F
FRANKFORT      FOG       44  42  93 CALM      29.56R VSB 1/2
LOUISVILLE     CLEAR     50  45  83 E3        29.55F
LEBANON*         N/A     52  48  87 E3        29.56S
GLASGOW*       CLOUDY    52  47  83 E6        29.53F
BOWLING GREEN  CLEAR     51  47  86 E3        29.53S
$$

KYZ091>093-OHZ055-061-077-WVZ005-015-034-035-042-220900
...SOUTHERN OHIO/WEST VIRGINIA...

CITY           SKY/WX    TMP DP  RH WIND       PRES   REMARKS
COVINGTON      CLEAR     49  48  97 E8        29.58F
COLUMBUS       MOCLDY    53  51  93 CALM      29.64F
DAYTON         PTCLDY    50  49  96 S3        29.63S FOG
WILMINGTON     PTCLDY    51  49  92 SE5       29.62F
HUNTINGTON     FOG       50  49  96 E5        29.62F VSB 1
CHARLESTON     CLOUDY    50  48  93 CALM      29.66R
PINEVILLE*     CLEAR     43  39  87 MISG      29.72S FOG
BECKLEY        CLOUDY    50  47  89 CALM      29.69R
BLUEFIELD      FOG       48  47  96 NE3       29.70R VSB 1/4
LOGAN CO APT*    N/A     52  48  87 CALM      29.66S
$$

VAZ002-007-008-TNZ017-027-036-066-071-220900
...SOUTHWEST VIRGINIA/EAST TENNESSEE...

CITY           SKY/WX    TMP DP  RH WIND       PRES   REMARKS
WISE*          PTCLDY    50  50 100 SE3       29.65F
JONESVILLE*      N/A     43  43 100 CALM      29.63F
ABINGDON*      MOCLDY    50  50  98 E7        29.65F
BRISTOL        CLOUDY    50  49  96 CALM      29.63F
MORRISTOWN*    CLOUDY    52  52 100 CALM      29.59F
SEVIERVILLE*   SUNNY     46  45  93 CALM      29.60S
KNOXVILLE      CLOUDY    51  49  92 E5        29.57F
LAFOLLETTE*    FOG       43  43 100 CALM      29.61F VSB 0
OAK RIDGE      CLOUDY    51  48  89 CALM      29.58F
CROSSVILLE     PTCLDY    49  47  93 E5        29.56F
NASHVILLE      CLOUDY    54  49  83 SE5       29.50F
$$

...KEY TO REMARKS...
VSB - VISIBILITY IN MILES
WCI - WIND CHILL INDEX
HX  - HEAT INDEX

$$




USA.gov is the U.S. government's official web portal to all federal, state and local government web resources and services.